Location: Beuerbach
(48.1459°N, 10.9174°E)
Time: 03:15:14
(UTC+00:00)

Daily predictions for brighter satellites

Satellite Brightness Start Highest point End
(mag) Time Altitude Azimuth Time Altitude Azimuth Time Altitude Azimuth
Cosmos 2228 Rocket 3.1 00:05:20 50° SSW 00:06:24 75° W 00:10:55 10° N
Meteor 1-21 4.2 00:04:42 38° S 00:06:58 77° E 00:12:43 10° NNE
Helios 1A Rocket 2.9 00:07:43 48° SE 00:08:41 71° ENE 00:12:32 10° N
Cosmos 2082 Rocket 2.2 00:07:01 39° S 00:09:12 76° ESE 00:14:56 10° NNE
Cosmos 1833 Rocket 3.8 00:08:10 19° WSW 00:11:43 38° NW 00:16:56 10° NNE
BREEZE-M DEB (TANK) 3.4 00:13:11 43° SW 00:13:52 49° SSW 00:21:58 10° SE
CZ-2D R/B 4.0 00:13:36 10° NE 00:17:52 23° E 00:21:24 13° SE
Cosmos 1908 Rocket 4.2 00:15:51 10° N 00:20:12 51° ENE 00:22:21 27° SE
Cosmos 2360 Rocket 4.2 00:16:37 10° NNW 00:21:29 28° NE 00:26:19 10° ESE
USA 267 3.5 00:17:32 10° NE 00:24:01 69° NNW 00:30:21 11° WSW
DELTA 2 R/B (1) 4.2 00:26:16 34° S 00:26:16 34° S 00:31:04 10° ESE
Cosmos 1455 2.6 00:26:52 10° N 00:30:14 49° ENE 00:31:18 35° SE
Cosmos 1733 Rocket 3.6 00:26:59 10° NNW 00:31:05 42° W 00:31:55 37° WSW
Cosmos 841 Rocket 3.7 00:27:08 10° NNW 00:32:22 69° ENE 00:36:21 18° SSE
Resurs 1-4 Rocket 3.5 00:28:07 10° NE 00:32:43 30° E 00:36:00 16° SSE
Cosmos 1400 Rocket 3.7 00:32:16 32° WSW 00:33:12 37° WNW 00:36:56 10° N
H-2A R/B 4.0 00:33:38 10° NNW 00:36:54 20° WNW 00:38:59 15° W
Cosmos 2278 3.8 00:35:57 10° NNW 00:41:43 82° ENE 00:46:48 13° SSE
H-2A R/B 4.4 00:38:26 10° NNE 00:42:10 37° E 00:43:49 25° SE
NOSS 3-4 (A) 4.3 00:36:58 10° NW 00:43:26 41° WSW 00:47:10 26° SSW
NOSS 3-4 (C) 4.3 00:37:04 10° NW 00:43:33 41° WSW 00:47:19 26° S
Cosmos 1346 Rocket 3.2 00:41:03 10° NNW 00:44:45 42° W 00:45:17 39° WSW
Cosmos 676 Rocket 4.0 00:42:47 34° SSW 00:45:12 79° WNW 00:50:34 10° NNE
COBE Rocket 4.5 00:40:45 10° NNE 00:45:31 51° E 00:48:15 24° SSE
SL-08 R/B 4.5 00:44:05 30° SSW 00:47:20 75° W 00:53:31 10° N
Cosmos 468 Rocket 4.4 00:42:52 10° NNW 00:47:56 46° WSW 00:49:48 32° SSW
Okean 2 3.2 00:49:49 43° SSW 00:51:01 76° W 00:55:01 10° N
Cosmos 1954 Rocket 4.3 00:48:42 30° SW 00:51:17 60° WNW 00:56:34 10° NNE
Cosmos 1745 Rocket 4.1 00:48:37 25° S 00:52:23 78° E 00:58:41 10° NNE
CZ-2C R/B 3.2 00:47:46 11° SE 00:52:40 54° ENE 00:57:43 10° N
Meteor 1-4 Rocket 1.8 00:53:08 70° S 00:53:26 86° E 00:56:24 10° NNE
Cosmos 2333 Rocket 3.5 00:49:03 10° NNW 00:54:26 41° NE 00:59:50 10° ESE
Cosmos 2322 Rocket 2.8 00:53:49 10° NNW 00:59:25 58° ENE 01:04:59 10° SE
Cosmos 1703 Rocket 3.5 00:58:55 34° SSW 01:00:49 85° W 01:05:18 10° N
USA 234 3.7 00:56:30 18° S 01:00:50 39° SW 01:06:53 10° WNW
BREEZE-M R/B 4.4 00:59:28 25° S 01:02:12 41° SE 01:15:23 10° ENE
Cosmos 1953 2.5 01:00:23 10° NNW 01:04:11 51° W 01:05:20 37° SW
SL-8 R/B 3.9 01:01:10 10° W 01:05:41 43° SSW 01:10:12 10° SE
NPP 3.8 01:01:44 10° NNE 01:07:09 72° ESE 01:10:33 23° S
SL-27 R/B 4.2 01:08:51 14° SE 01:09:57 17° ESE 01:11:50 10° ENE
Cosmos 1980 Rocket 3.5 01:08:40 10° NW 01:12:48 21° W 01:14:01 20° WSW
Nadezhda 1 Rocket 4.1 01:07:41 10° NNW 01:14:01 63° W 01:18:17 21° SSW
Cosmos 1242 Rocket 2.5 01:13:25 34° SSE 01:14:18 49° E 01:17:07 10° NNE
Cosmos 1300 Rocket 3.5 01:13:02 10° N 01:17:23 85° ENE 01:20:25 19° S
ADEOS II 2.8 01:14:52 10° NNE 01:19:57 47° E 01:24:13 14° S
MOZ.5/SAFIR/RUBIN 5/SL-8 4.3 01:18:20 27° SSW 01:20:27 42° W 01:24:57 10° NNW
Cosmos 1408 2.7 01:21:25 26° SSE 01:22:44 48° E 01:25:39 10° NNE
COSMOS 2406 4.1 01:19:32 18° WSW 01:23:27 42° NW 01:28:55 10° NNE
IDEFIX/ARIANE 42P 2.6 01:19:43 10° NNE 01:25:01 81° WNW 01:28:29 22° SSW
Lacrosse 5 rocket 1.2 01:21:45 10° WNW 01:25:46 57° SW 01:29:36 10° SE
ALOS 3.8 01:23:34 10° NNE 01:27:40 30° E 01:31:44 10° SSE
EXPRESS MD2 3.2 01:27:55 34° S 01:28:43 43° SSE 01:32:42 10° ENE
Okean 1-7 4.3 01:30:04 20° WSW 01:32:02 28° WNW 01:35:47 10° N
COSMOS 2441 4.4 01:30:48 10° NNE 01:35:37 75° ESE 01:39:14 17° S
ATLAS 2AS CENTAUR R/B 3.4 01:34:11 10° NW 01:41:01 58° NE 01:47:32 10° ESE
Cosmos 1315 Rocket 3.8 01:39:37 21° WSW 01:41:29 32° WNW 01:45:01 10° N
SJ 16-02 1.5 01:39:50 18° S 01:42:53 65° ESE 01:47:11 10° NNE
CZ-2C R/B 3.4 01:37:40 10° NNE 01:43:32 84° ESE 01:48:26 15° SSW
SL-16 R/B 2.5 01:38:20 10° NW 01:43:44 46° WSW 01:49:03 10° S
Cosmos 1850 Rocket 4.3 01:46:14 19° SW 01:49:59 58° WNW 01:55:12 10° NNE
Cosmos 2333 4.4 01:45:07 10° NNW 01:50:52 78° ENE 01:56:38 10° SSE
Cosmos 2082 Rocket 3.9 01:49:18 10° W 01:53:54 24° NW 01:58:32 10° N
Cosmos 1709 Rocket 4.3 01:49:42 17° SSW 01:54:35 57° WNW 02:00:52 10° N
Cosmos 1741 Rocket 4.3 01:51:18 18° SW 01:55:06 56° WNW 02:00:18 10° NNE
SL-16 R/B 2.6 01:49:45 10° SSE 01:56:02 85° WSW 02:02:21 10° NNW
Cosmos 1782 Rocket 4.5 01:53:12 10° NNW 01:57:05 31° W 01:59:38 17° SW
Cosmos 2219 Rocket 2.7 01:51:27 10° NNW 01:57:05 65° ENE 02:02:43 10° SE
Cosmos 2181 Rocket 4.0 01:51:23 10° N 01:57:47 83° W 02:04:04 10° S
CZ-2D R/B 2.4 01:52:52 10° N 01:58:16 60° WNW 02:02:42 15° SW
Cosmos 1703 3.1 02:00:01 16° SSW 02:02:55 75° W 02:06:41 10° N
Meteor 1-28 Rocket 3.0 01:59:46 11° S 02:03:12 63° WSW 02:06:46 10° NNW
Cosmos 1455 4.2 02:03:03 10° WNW 02:04:16 11° W 02:05:04 11° W
AQUA 3.8 01:59:48 10° NNE 02:04:33 87° WNW 02:08:57 12° SSW
COSMOS 2428 4.2 01:59:59 10° NNW 02:05:20 40° NE 02:10:40 10° ESE
Cosmos 2360 Rocket 2.2 02:00:17 10° NNW 02:05:54 62° WSW 02:11:28 10° SSE
Cosmos 968 Rocket 3.6 02:02:10 16° SW 02:06:12 61° WNW 02:11:19 10° NNE
USA 267 4.4 02:00:27 10° ENE 02:06:31 43° N 02:12:36 10° WNW
Genesis I 2.9 02:05:37 18° SW 02:08:10 79° NW 02:11:45 10° NE
Meteor 1-24 Rocket 3.9 02:02:47 10° S 02:08:45 87° W 02:14:47 10° N
RESURS DK-1 2.2 02:06:01 10° NNW 02:10:04 73° WSW 02:14:07 10° SSE
MSX 4.4 02:05:43 10° N 02:11:08 44° WNW 02:16:00 13° SW
DELTA 2 R/B (1) 4.4 02:07:00 10° WSW 02:11:45 29° SSW 02:16:29 10° SE
Resurs 1-4 Rocket 2.7 02:07:42 10° N 02:12:38 43° WNW 02:17:04 13° SW
SAR-Lupe-4 3.6 02:11:30 10° NNE 02:15:06 85° ESE 02:18:37 10° SSW
FENGYUN 3A 3.9 02:16:53 10° N 02:22:10 59° WNW 02:27:25 10° SSW
IRAS Rocket 4.2 02:17:16 10° NNE 02:22:49 88° WNW 02:28:17 10° SSW
Geosat 4.0 02:26:03 10° SSE 02:31:04 85° WSW 02:36:08 10° NNW
CZ-2C R/B 3.8 02:29:15 10° SW 02:33:16 23° W 02:37:20 10° NW
Cosmos 2221 Rocket 3.7 02:29:23 10° S 02:33:56 86° WNW 02:38:30 10° N
ASTEX 1 4.2 02:29:54 10° SSE 02:34:43 56° E 02:39:31 10° N
SAR-Lupe-1 4.3 02:34:00 10° N 02:37:31 55° WNW 02:41:00 10° SSW
Cosmos 1825 2.0 02:34:15 10° S 02:37:39 77° E 02:41:05 10° NNE
Sich 1 Rocket 3.7 02:34:05 10° NNW 02:38:32 59° W 02:42:54 10° S
Cosmos 2333 Rocket 2.7 02:33:26 10° NW 02:38:42 39° WSW 02:43:58 10° S
Cosmos 2098 Rocket 4.3 02:34:06 10° NNW 02:38:52 38° W 02:44:22 10° SSW
Cosmos 1295 Rocket 4.5 02:34:17 10° SSW 02:40:25 79° W 02:46:33 10° N
Cosmos 2151 Rocket 3.8 02:36:41 10° NNW 02:41:02 51° W 02:45:20 10° S
SL-27 R/B 3.5 02:40:35 10° WSW 02:42:53 22° WNW 02:45:11 10° N
YAOGAN 6 3.8 02:39:55 10° NNE 02:43:02 37° E 02:46:08 10° SSE
Cosmos 2322 Rocket 3.2 02:38:30 10° NW 02:43:03 26° WSW 02:47:37 10° SSW
Cosmos 1892 2.4 02:40:17 10° SSW 02:43:47 76° W 02:47:18 10° N
Cosmos 1455 Rocket 4.3 02:39:57 10° N 02:44:09 45° ENE 02:48:22 10° SSE
Cosmos 1025 Rocket 3.7 02:41:28 10° S 02:45:44 57° E 02:50:04 10° NNE
Meteor 2-5 Rocket 4.4 02:43:41 10° SW 02:49:18 44° WNW 02:55:00 10° N
